User: anonymous   Login
Location: Cercedilla
(40.7379°N, 4.0638°W)
Time: 14:08:31
(UTC+00:00)
Language:

Cosmos 1538 Rocket - Orbit

View from above orbital plane
View from above orbital plane
View from above satellite
View from above satellite

Ground track
Ground track

The orbit data is extracted from the following two-line orbital elements,

1 14760U 84019B   21125.89690010  .00000030  00000-0  19430-4 0  9998
2 14760  74.0459  39.1220 0028951 270.1097  89.6739 14.35908059946990
Epoch (UTC): 05 May 2021 21:31:32
Eccentricity: 0.0028951
inclination: 74.0459°
perigee height: 751 km
apogee height: 793 km
right ascension of ascending node: 39.1220°
argument of perigee: 270.1097°
revolutions per day: 14.35908059
mean anomaly at epoch: 89.6739°
orbit number at epoch: 94699

The dashed part of the orbit path shows where the satellite is in the earth's shadow,  

DLR